Regional Weather Roundup
Issued by NWS

Home | Current Version | Previous Version | Text Only | Print | Product List | Glossary On
Versions: 1 2 3 4 5 6 7 8 9 10 11 12 13 14 15 16 17 18 19 20 21 22 23 24 25 26 27 28 29 30 31 32 33 34 35 36 37 38 39 40 41 42 43 44 45 46 47 48 49 50
000
ASUS43 KMPX 280010
RWRMN
WEATHER ROUNDUP FOR MINNESOTA
NATIONAL WEATHER SERVICE TWIN CITIES/CHANHASSEN MN
700 PM CDT WED AUG 27 2014


NOTE: "FAIR" INDICATES FEW OR NO CLOUDS BELOW 12,000 FEET WITH NO
SIGNIFICANT WEATHER AND/OR OBSTRUCTIONS TO VISIBILITY. N/A MEANS
CURRENT SKY AND/OR WEATHER CONDITIONS ARE NOT AVAILABLE.

MNZ060>063-068>070-280100-
   Twin Cities Metro

CITY           SKY/WX    TMP DP  RH WIND       PRES   REMARKS
TWIN CITIES    PTCLDY    74  56  53 E9        30.11F
6HR MIN TEMP:  71; 6HR MAX TEMP:  78;

ST PAUL        MOCLDY    74  57  55 E6        30.12F
CRYSTAL        MOCLDY    74  57  55 NE6       30.10F
BLAINE         MOCLDY    73  59  60 NE7       30.12F
LAKEVILLE      CLEAR     72  57  60 CALM      30.12F
EDEN PRAIRIE   CLEAR     75  55  49 CALM      30.10F
6HR MIN TEMP:  73; 6HR MAX TEMP:  79;

SOUTH ST PAUL  PTCLDY    75  55  50 E3        30.11F
LAKE ELMO      FAIR      73  57  56 CALM      30.13F
$$
MNZ001>005-007-008-013>017-022>024-027-028-280100-
   Northwest Minnesota

CITY           SKY/WX    TMP DP  RH WIND       PRES   REMARKS
BEMIDJI        SUNNY     70  51  52 SW3       30.12S
HALLOCK        SUNNY     72  52  49 S8        30.07F
ROSEAU         SUNNY     72  52  49 S6        30.10F
WARROAD        SUNNY     70  54  56 E5        30.11F
THIEF RVR FALL SUNNY     72  52  49 S3        30.11S
CROOKSTON      SUNNY     72  55  56 SW6       30.10F
FOSSTON        SUNNY     72  54  53 CALM      30.12F
DETROIT LAKES  MOSUNNY   68  57  68 S5        30.13F
MOORHEAD       SUNNY     73  63  68 S3        30.10S
PARK RAPIDS    SUNNY     68  57  68 S7        30.13F
MAHNOMEN       FAIR      69  58  66 SW5       30.11F
$$
MNZ006-009>011-018-025>026-280100-
   North Central Minnesota

CITY           SKY/WX    TMP DP  RH WIND       PRES   REMARKS
BAUDETTE       SUNNY     66  54  65 NW3       30.11F
FLAG ISLAND    SUNNY     68  48  49 S5        30.10F
INTL FALLS     PTCLDY    68  52  56 NE6       30.12S
6HR MIN TEMP:  65; 6HR MAX TEMP:  72;

WASKISH        SUNNY     68  54  60 CALM      30.12F
BIG FORK       PTCLDY    70  52  52 CALM      30.14S
LONGVILLE      SUNNY     68  57  68 S5        30.13S
GRAND RAPIDS   PTCLDY    70  52  52 W3        30.13F
CRANE LAKE     PTCLDY    64  55  72 CALM      30.14S
ORR            CLEAR     68  48  49 CALM      30.11F
COOK           PTCLDY    68  52  56 W3        30.14F
WALKER         FAIR      68  56  65 SW6       30.13S
$$
MNZ012-019>021-037-280100-
   Northeast Minnesota

CITY           SKY/WX    TMP DP  RH WIND       PRES   REMARKS
DULUTH         PTCLDY    68  50  52 W3        30.14F
6HR MIN TEMP:  65; 6HR MAX TEMP:  72;

ELY            PTCLDY    64  50  59 CALM      30.14S
HIBBING        PTCLDY    70  50  49 W3        30.14S
EVELETH        CLEAR     68  46  45 NW3       30.15S
DULUTH HARBOR  CLEAR     70  57  64 CALM      30.13S
TWO HARBORS    CLEAR     64  52  63 SW3       30.12F
SILVER BAY     CLEAR     61  55  82 CALM      30.12F
GRAND MARAIS     N/A     60  51  72 VRB3      30.14F
G MARAIS ARPRT CLEAR     55  46  71 CALM      30.17S
$$
MNZ029>031-032-039>041-046>048-054>057-064-280100-
   West Central Minnesota

CITY           SKY/WX    TMP DP  RH WIND       PRES   REMARKS
FERGUS FALLS   MOSUNNY   72  55  56 SE6       30.10S
WHEATON        MOSUNNY   70  59  68 SE6       30.10F
MORRIS         SUNNY     72  59  64 SE6       30.10S
ALEXANDRIA     SUNNY     71  58  63 SE8       30.13F
ELBOW LAKE     FAIR      69  60  72 SE5       30.11S
WADENA         PTSUNNY   68  57  68 CALM      30.13S
GLENWOOD       MOSUNNY   72  61  68 E5        30.13S
APPLETON       PTSUNNY   73  61  64 E6        30.09S
BENSON         MOSUNNY   72  61  68 S5        30.10F
ORTONVILLE     CLOUDY    72  61  68 SE5       30.09F
MADISON        MOSUNNY   73  63  68 E5        30.09S
WILLMAR        FAIR      73  57  56 SE5       30.12F
$$
MNZ033>034-036-042>043-049>051-058-059-280100-
   Central Minnesota

CITY           SKY/WX    TMP DP  RH WIND       PRES   REMARKS
ST CLOUD       MOSUNNY   73  58  59 NE5       30.12F
6HR MIN TEMP:  71; 6HR MAX TEMP:  77;

SAUK CENTRE    MOCLDY    72  58  61 E6        30.12F
PAYNESVILLE    MOSUNNY   70  56  61 E5        30.12F
AITKIN         CLEAR     70  59  68 S3        30.13F
PINE RIVER     MOSUNNY   66  59  77 S3        30.17S
BRAINERD       SUNNY     68  57  68 CALM      30.14F
STAPLES        CLOUDY    66  57  72 CALM      30.13F
LONG PRAIRIE   CLOUDY    68  59  73 NE6       30.14S
LITTLE FALLS   CLOUDY    68  57  68 CALM      30.13F
LITCHFIELD     MOSUNNY   75  61  60 E5        30.12F
BUFFALO        PTCLDY    72  58  60 CALM      30.13F
MAPLE LAKE     MOCLDY    72  62  71 CALM      30.13F
$$
MNZ037-044-045-052-053-280100-
   East Central Minnesota

CITY           SKY/WX    TMP DP  RH WIND       PRES   REMARKS
PRINCETON      MOCLDY    72  59  64 E3        30.14F
MORA           CLEAR     68  55  64 CALM      30.16F
CAMBRIDGE      PTCLDY    70  55  60 CALM      30.13S
RUSH CITY      PTCLDY    69  56  62 CALM      30.14F
MOOSE LAKE     CLEAR     68  55  64 SW6       30.13S
HINCKLEY       FAIR      70  55  60 NE3       30.14S
CLOQUET        PTCLDY    68  52  56 SW5       30.14F
MCGREGOR       CLEAR     68  55  64 SW5       30.15F
$$
MNZ071>073-080-081-089-090-097-098-280100-
   Southwest Minnesota

CITY           SKY/WX    TMP DP  RH WIND       PRES   REMARKS
MONTEVIDEO     CLOUDY    72  61  68 SE6       30.10F
GRANITE FALLS  PTSUNNY   74  59  58 SE6       30.11S
CANBY          CLOUDY    73  62  67 SE7       30.10S
MARSHALL       MOSUNNY   73  57  56 SE10      30.09
REDWOOD FALLS  SUNNY     74  56  53 SE8       30.10
OLIVIA         SUNNY     73  59  60 SE5       30.11S
PIPESTONE      CLOUDY    72  63  73 S7        30.11S
WINDOM         SUNNY     72  61  68 SE5       30.11F
WORTHINGTON    CLOUDY    70  64  83 SE6       30.12
JACKSON        SUNNY     70  61  73 E5        30.12S
TRACY          MOSUNNY   73  62  67 SE5       30.11S
SLAYTON        MOSUNNY   72  63  74 CALM      30.12S
$$
MNZ065>067-074>077-082>085-091>093-280100-
   South Central Minnesota

CITY           SKY/WX    TMP DP  RH WIND       PRES   REMARKS
MANKATO        CLEAR     72  55  56 SE7       30.12S
NEW ULM        SUNNY     72  59  64 S6        30.11F
ST JAMES       SUNNY     75  61  60 E5        30.12S
FAIRMONT       MOSUNNY   70  55  60 E6        30.11
GLENCOE        MOSUNNY   76  56  50 SE5       30.11F
FARIBAULT      PTCLDY    75  54  46 E3        30.12F
OWATONNA       CLEAR     72  57  60 SE5       30.13S
WASECA         CLEAR     72  54  53 SE5       30.14S
ALBERT LEA     PTCLDY    72  59  64 E5        30.12F
$$
MNZ078>079-086>088-094>096-280100-
   Southeast Minnesota

CITY           SKY/WX    TMP DP  RH WIND       PRES   REMARKS
ROCHESTER      PTCLDY    70  59  68 E3        30.14F
6HR MIN TEMP:  70; 6HR MAX TEMP:  73;

RED WING       CLEAR     73  55  53 CALM      30.11S
STANTON        CLEAR     74  59  60 CALM      30.11F
DODGE CENTER   CLEAR     72  61  68 CALM      30.13F
WINONA         PTCLDY    73  59  60 CALM      30.12F
AUSTIN         MOCLDY    70  61  73 CALM      30.12S
PRESTON        MOCLDY    70  62  77 CALM      30.14F
$$
ABBREVIATIONS USED IN REMARKS
   TC - TEMPERATURES IN CELSIUS
  WCI - WIND CHILL INDEX
   HX - HEAT INDEX
  VSB - VISIBILITY
$$



USA.gov is the U.S. government's official web portal to all federal, state and local government web resources and services.